Regional Weather Roundup
Issued by NWS

Home | Current Version | Previous Version | Text Only | Print | Product List | Glossary Off
Versions: 1 2 3 4 5 6 7 8 9 10 11 12 13 14 15 16 17 18 19 20 21 22 23 24 25 26 27 28 29 30 31 32 33 34 35 36 37 38 39 40 41 42 43 44 45 46 47 48 49 50

000
ASUS43 KLOT 170012
RWRIL

ILLINOIS REGIONAL WEATHER ROUNDUP
NATIONAL WEATHER SERVICE CHICAGO/ROMEOVILLE IL
600 PM CST MON JAN 16 2017

NOTE: "FAIR" INDICATES FEW OR NO CLOUDS BELOW 12,000 FEET WITH NO
SIGNIFICANT WEATHER AND/OR OBSTRUCTIONS TO VISIBILITY.

* THESE STATIONS ARE NOT UNDER NWS QUALITY CONTROL. THEY ALSO MAY NOT
  REPORT WEATHER SUCH AS PRECIPITATION OR FOG.

ILZ001-002-007-009-015-016-024-170100-
NORTHWEST ILLINOIS

CITY           SKY/WX    TMP DP  RH WIND       PRES   REMARKS
MOLINE         CLOUDY    37  35  92 E7        29.93F FOG     WCI  32
6HR MIN TEMP:  35; 6HR MAX TEMP:  37; 6HR PCP:  0.33;

SAVANNA*       DRIZZLE   35  34  98 E6        29.97S WCI  30
$$

ILZ003-004-008-010-011-017-018-170100-
NORTH CENTRAL ILLINOIS

CITY           SKY/WX    TMP DP  RH WIND       PRES   REMARKS
ROCKFORD       LGT RAIN  36  34  92 E10       29.99F FOG     WCI  28
6HR MIN TEMP:  34; 6HR MAX TEMP:  36; 6HR PCP:  0.41;

FREEPORT*      LGT RAIN  34  33  98 E9        29.98F WCI  26
ROCHELLE*      LGT RAIN  35  35 100 E9        29.99S WCI  27
DE KALB*       DRZL/FOG  35  35  99 E15       29.99F VSB 1   WCI  25
$$

ILZ005-006-012>014-019>023-170100-
NORTHEAST ILLINOIS

CITY           SKY/WX    TMP DP  RH WIND       PRES   REMARKS
CHICAGO-OHARE  DRIZZLE   36  35  96 E9        30.02F FOG     WCI  29
6HR MIN TEMP:  35; 6HR MAX TEMP:  36; 6HR PCP:  0.50;

CHICAGO-MIDWAY LGT RAIN  36  34  92 NE7       30.03F VSB 1/2 WCI  30
6HR MIN TEMP:  35; 6HR MAX TEMP:  37; 6HR PCP:  0.24;

AURORA         FOG       37  35  92 E9        30.00F VSB 1   WCI  30
6HR MIN TEMP:  35; 6HR MAX TEMP:  37; 6HR PCP:  0.37;

LANSING*       FOG       37  37 100 SE6       30.03F VSB 1/2 WCI  32
JOLIET*        FOG       38  38 100 E7        30.01F VSB 3/4 WCI  33
WAUKEGAN       LGT RAIN  36  35  96 E8        30.04F VSB 1/4 WCI  30
6HR MIN TEMP:  34; 6HR MAX TEMP:  36; 6HR PCP:  0.40;

DUPAGE AIRPORT LGT RAIN  36  33  89 E8        30.00F FOG     WCI  30
6HR MIN TEMP:  35; 6HR MAX TEMP:  36; 6HR PCP:  0.44;

KANKAKEE*      FOG       38  37  99 E12       30.01F VSB 1   WCI  30
WHEELING       CLOUDY    36  35  96 E8        30.05F FOG     WCI  30
6HR MIN TEMP:  34; 6HR MAX TEMP:  36; 6HR PCP:  0.48;

MORRIS*        RAIN      36  36  97 E7        29.99F VSB 1/2 WCI  31
ROMEOVILLE*    FOG       36  36 100 E8        30.01F VSB 1/2 WCI  29
NORTHERLY ISL    N/A     33  32  96 NE5         N/A  WCI  29
$$

LMZ740>746-170100-
SOUTHERN LAKE MICHIGAN

STATION/POSITION SKY/WX   TEMP    WIND        PRES    VSBY  WAVE
                          AIR SEA DIR/SP/G                  HT/PER
                          (F)     (DEG/KT/KT) (MB)    (MI)  (FT/S)
HARRISON CRIB              36      90/  9/ 10   N/A
BURNHAM HARBOR             34      50/  6/  6   N/A
CALUMET HARBOR             34      50/  3/  4 1016.7F
BURNS HARBOR               38     140/  8/ 13 1018.3S
MICHIGAN CITY              37     100/  8/  9   N/A
$$

ILZ025>027-034>036-040-047-049-050-058-095>099-170100-
WEST-CENTRAL ILLINOIS

CITY           SKY/WX    TMP DP  RH WIND       PRES   REMARKS
QUINCY         FOG       42  42 100 SE8       29.88F VSB 1/4
GALESBURG*     CLOUDY    38  38 100 E6        29.92R WCI  33
MACOMB*        FOG       37  37 100 E6        29.94F VSB 3/4 WCI  32
JACKSONVILLE*  DRZL/FOG  44  44  99 CALM      29.93S VSB 1/2
PITTSFIELD*    FOG       47  47 100 SE7       29.91F VSB 1/4
$$

ILZ028>032-037-038-041>044-048-051>054-059>061-170100-
CENTRAL ILLINOIS

CITY           SKY/WX    TMP DP  RH WIND       PRES   REMARKS
PONTIAC        FOG       38  38 100 E9        29.98S VSB 1/2 WCI  31
BLOOMINGTON    LGT RAIN  44  43  96 SE13      29.94F VSB 1/2
DECATUR        LGT RAIN  49  49 100 SE13      29.95F VSB 1/2
PEORIA         LGT RAIN  42  42 100 E6        29.95F FOG
6HR MIN TEMP:  35; 6HR MAX TEMP:  43; 6HR PCP:  0.22;

LACON*         RAIN      36  36 100 CALM      29.98R
LINCOLN*       FOG       47  47 100 S3        29.94S VSB 1
SPRINGFIELD    LGT RAIN  51  50  96 S13       29.94F VSB 1
6HR MIN TEMP:  42; 6HR MAX TEMP:  51; 6HR PCP:  0.02;

TAYLORVILLE    TSTM      50  50 100 SE10      29.94F
6HR MIN TEMP:  44; 6HR MAX TEMP:  50; 6HR PCP:  0.04;

$$

ILZ033-039-045-046-055>057-062-063-170100-
EAST-CENTRAL ILLINOIS

CITY           SKY/WX    TMP DP  RH WIND       PRES   REMARKS
CHAMPAIGN      LGT RAIN  45  44  97 SE10      29.98F VSB 1/4
RANTOUL*       LGT RAIN  44  44  99 SE9       29.97F VSB 1/2
MATTOON        LGT RAIN  51  51 100 SE12      29.98F FOG
PARIS*         RAIN      49  49 100 SE10      30.01F
$$

ILZ079-100>102-170100-
SOUTHWEST ILLINOIS

CITY           SKY/WX    TMP DP  RH WIND       PRES   REMARKS
ALTON          LGT RAIN  52  52 100 SE7       29.93F
BELLEVILLE     LGT RAIN  55  55 100 CALM      29.91R
CAHOKIA*       LGT RAIN  55  52  89 E3        29.91F
SPARTA*        CLOUDY    55  55  99 SE8       29.94F
$$

ILZ064>066-069>071-074>076-080>082-084>086-088>090-092>094-170100-
SOUTH-CENTRAL ILLINOIS

CITY           SKY/WX    TMP DP  RH WIND       PRES   REMARKS
CARBONDALE     LGT RAIN  58  58 100 SE9       29.94F FOG
6HR MIN TEMP:  50; 6HR MAX TEMP:  60; 6HR PCP:  0.25;

CAIRO*         DRIZZLE   61  58  90 SE13      29.96F
EFFINGHAM*     LGT RAIN  53  53 100 SE9       29.99F
MARION         RAIN      59  57  94 S92       29.97F
MT. VERNON     LGT RAIN  54  53  97 SE8       29.96F
CENTRALIA*     CLOUDY    55  54  99 CALM      29.95F
SALEM*         CLOUDY    55  53  94 SE6       29.95F
METROPOLIS*    LGT RAIN  60  56  88 SE3       29.99F
$$

ILZ067-068-072-073-078-083-087-091-170100-
SOUTHEAST ILLINOIS

CITY           SKY/WX    TMP DP  RH WIND       PRES   REMARKS
LAWRENCEVILLE  CLOUDY    53  53 100 SE9       30.02F
FLORA*         LGT RAIN  55  54  95 SE13      29.97F
FAIRFIELD*     LGT RAIN  54  53  99 SE3       29.97F
HARRISBURG*    RAIN      53  53  99 SE8       29.99F
ROBINSON*      CLOUDY    52  52  99 SE8       30.03F
CARMI*         LGT RAIN  52  52 100 SE5       30.00F
$$

ABBREVIATIONS USED IN REMARKS
   TC - TEMPERATURE IN CELSIUS
  WCI - WIND CHILL INDEX
   HX - HEAT INDEX
  VSB - VISIBILITY
$$




USA.gov is the U.S. government's official web portal to all federal, state and local government web resources and services.